Regional Weather Roundup
Issued by NWS

Home | Current Version | Previous Version | Graphics & Text | Print | Product List | Glossary On
Versions: 1 2 3 4 5 6 7 8 9 10 11 12 13 14 15 16 17 18 19 20 21 22 23 24 25 26 27 28 29 30 31 32 33 34 35 36 37 38 39 40 41 42 43 44 45 46 47 48 49 50
838
ASUS43 KBIS 280010
RWRND
NORTH DAKOTA REGIONAL WEATHER ROUNDUP
NATIONAL WEATHER SERVICE EASTERN NORTH DAKOTA/GRAND FORKS ND
700 PM CDT SAT MAY 27 2017

  NOTE: "FAIR" INDICATES FEW OR NO CLOUDS BELOW 12,000 FEET WITH NO
  SIGNIFICANT WEATHER AND/OR OBSTRUCTIONS TO VISIBILITY.

NDZ001>003-009>011-017-280100-
...NORTHWEST NORTH DAKOTA...

CITY           SKY/WX    TMP DP  RH WIND       PRES   REMARKS
WILLISTON      FAIR      75  34  22 NW22G39   29.84R
6HR MIN TEMP:  65; 6HR MAX TEMP:  76; 6HR PCP: TRACE;

MINOT          FAIR      63  43  48 NW18      29.81R
MINOT AFB      FAIR      62  45  52 N10       29.80S
6HR MIN TEMP:  52; 6HR MAX TEMP:  73; 6HR PCP:  0.13;

$$

NDZ018>021-031>035-040>046-280100-
...SOUTHWEST NORTH DAKOTA...

CITY           SKY/WX    TMP DP  RH WIND       PRES   REMARKS
BISMARCK       CLOUDY    64  45  49 N24G35    29.84R
DICKINSON      FAIR      69  32  25 NW21G30   29.86F
GARRISON         N/A     62  49  62 NW8       29.82F
HETTINGER      PTSUNNY   67  42  40 NW18      29.93R
$$

NDZ004>008-012>016-024-026-027-054-280100-
...NORTHEAST NORTH DAKOTA...

CITY           SKY/WX    TMP DP  RH WIND       PRES   REMARKS
GRAND FORKS    PTSUNNY   70  48  45 SE5       29.69F
GRAND FORKS AF FAIR      69  40  34 W9        29.70F
DEVILS LAKE    LGT RAIN  52  46  80 NW24G35   29.79R
$$

NDZ022-023-025-028>030-036>039-047>053-280100-
...SOUTHEAST NORTH DAKOTA...

CITY           SKY/WX    TMP DP  RH WIND       PRES   REMARKS
JAMESTOWN      FAIR      68  40  35 NW15      29.75R
FARGO          FAIR      75  37  25 W15G24    29.72S
WAHPETON       MOCLDY    72  37  28 SW21G30   29.76S
$$




USA.gov is the U.S. government's official web portal to all federal, state and local government web resources and services.